Date String (YYYY-MM-DD hh:mm:ss) UTC,Instrument flags,Ambient pressure (hPa),Sample flow (lpm),Bypass flow (lpm),Sample temperature (°C),Ambient temperature (°C),ASC tube jacket temperature (°C),LED temperature (°C),Box temperature (°C),Sample RH (%),Span deviation,Mass concentration (μg/m³),Mass concentration (μg/m³),Mass concentration (μg/m³)
DateTimeUTC,F1_M11,P_M11,Q1_M11,Q2_M11,T1_M11,T2_M11,T3_M11,T4_M11,T5_M11,U1_M11,ZSPAN_M11,X0_M11,X2_M11,X1_M11
2021-12-22 01:00:00,,0822.7,5.00,0.00,25.6,24.8,00.0,34.5,27.3,03.3,0000.0,0001.16,0000.75,0000.58
2021-12-22 01:01:00,,0822.7,5.00,0.00,25.6,24.8,00.0,34.5,27.3,03.3,0000.0,0001.15,0000.75,0000.58
2021-12-22 01:02:00,,0822.7,5.00,0.00,25.6,24.8,00.0,34.6,27.3,03.3,0000.0,0001.14,0000.75,0000.60
2021-12-22 01:03:00,,0822.8,4.99,0.00,25.6,24.8,00.0,34.6,27.3,03.4,0000.0,0001.13,0000.74,0000.60
2021-12-22 01:04:00,,0822.8,5.01,0.00,25.6,24.8,00.0,34.6,27.3,03.5,0000.0,0001.11,0000.75,0000.61
2021-12-22 01:05:00,,0822.7,4.99,0.00,25.6,24.8,00.0,34.5,27.3,03.5,0000.0,0001.19,0000.73,0000.61
2021-12-22 01:06:00,,0822.7,5.01,0.00,25.6,24.8,00.0,34.5,27.3,03.3,0000.0,0001.18,0000.72,0000.61
2021-12-22 01:07:00,,0822.7,4.98,0.00,25.6,24.8,00.0,34.6,27.3,03.2,0000.0,0001.14,0000.70,0000.60
2021-12-22 01:08:00,,0822.7,5.00,0.00,25.6,24.8,00.0,34.6,27.3,03.2,0000.0,0001.13,0000.70,0000.59
2021-12-22 01:09:00,,0822.7,5.00,0.00,25.6,24.7,00.0,34.6,27.3,03.2,0000.0,0001.10,0000.66,0000.59
2021-12-22 01:10:00,,0822.7,5.00,0.00,25.6,24.8,00.0,34.6,27.3,03.2,0000.0,0002.84,0000.65,0000.59
2021-12-22 01:11:00,,0822.7,5.01,0.00,25.6,24.7,00.0,34.6,27.3,03.2,0000.0,0002.85,0000.65,0000.58
2021-12-22 01:12:00,,0822.6,5.00,0.00,25.6,24.7,00.0,34.6,27.3,03.2,0000.0,0002.88,0000.65,0000.58
2021-12-22 01:13:00,,0822.6,5.00,0.00,25.6,24.7,00.0,34.6,27.3,03.1,0000.0,0002.89,0000.64,0000.56
2021-12-22 01:14:00,,0822.6,5.01,0.00,25.6,24.7,00.0,34.6,27.2,03.1,0000.0,0002.95,0000.63,0000.55
2021-12-22 01:15:00,,0822.6,4.99,0.00,25.6,24.7,00.0,34.6,27.2,03.2,0000.0,0002.93,0000.62,0000.54
2021-12-22 01:16:00,,0822.6,5.01,0.00,25.6,24.7,00.0,34.6,27.3,03.2,0000.0,0002.78,0000.61,0000.53
2021-12-22 01:17:00,,0822.6,5.00,0.00,25.6,24.7,00.0,34.6,27.3,03.3,0000.0,0002.74,0000.61,0000.53
2021-12-22 01:18:00,,0822.6,4.99,0.00,25.6,24.7,00.0,34.6,27.3,03.3,0000.0,0002.78,0000.62,0000.53
2021-12-22 01:19:00,,0822.6,5.01,0.00,25.6,24.7,00.0,34.6,27.3,03.3,0000.0,0002.85,0000.64,0000.53
2021-12-22 01:20:00,,0822.5,5.00,0.00,25.6,24.6,00.0,34.6,27.2,03.3,0000.0,0002.86,0000.65,0000.53
2021-12-22 01:21:00,,0822.4,4.99,0.00,25.6,24.6,00.0,34.6,27.2,03.2,0000.0,0001.18,0000.65,0000.53
2021-12-22 01:22:00,,0822.4,5.01,0.00,25.6,24.7,00.0,34.6,27.3,03.2,0000.0,0001.01,0000.64,0000.53
2021-12-22 01:23:00,,0822.4,5.00,0.00,25.6,24.7,00.0,34.6,27.3,03.3,0000.0,0001.02,0000.64,0000.53
2021-12-22 01:24:00,,0822.4,5.00,0.00,25.6,24.7,00.0,34.6,27.3,03.2,0000.0,0001.03,0000.64,0000.52
2021-12-22 01:25:00,,0822.5,5.01,0.00,25.6,24.7,00.0,34.6,27.3,03.0,0000.0,0000.99,0000.64,0000.52
2021-12-22 01:26:00,,0822.6,4.99,0.00,25.6,24.7,00.0,34.6,27.3,03.3,0000.0,0000.96,0000.65,0000.52
2021-12-22 01:27:00,,0822.4,5.01,0.00,25.6,24.7,00.0,34.6,27.3,03.3,0000.0,0001.04,0000.65,0000.52
2021-12-22 01:28:00,,0822.5,4.99,0.00,25.5,24.7,00.0,34.6,27.2,03.2,0000.0,0000.98,0000.62,0000.51
2021-12-22 01:29:00,,0822.6,5.00,0.00,25.5,24.6,00.0,34.6,27.2,03.3,0000.0,0001.90,0000.61,0000.50
2021-12-22 01:30:00,,0822.6,5.01,0.00,25.5,24.6,00.0,34.6,27.2,03.3,0000.0,0002.62,0000.62,0000.51
2021-12-22 01:31:00,,0822.5,4.98,0.00,25.5,24.6,00.0,34.6,27.2,03.1,0000.0,0002.58,0000.59,0000.49
2021-12-22 01:32:00,,0822.5,5.02,0.00,25.5,24.6,00.0,34.5,27.2,02.9,0000.0,0002.61,0000.59,0000.49
2021-12-22 01:33:00,,0822.6,4.99,0.00,25.5,24.6,00.0,34.6,27.2,02.9,0000.0,0002.70,0000.59,0000.48
2021-12-22 01:34:00,,0822.6,5.00,0.00,25.5,24.6,00.0,34.6,27.3,03.0,0000.0,0002.69,0000.59,0000.48
2021-12-22 01:35:00,,0822.5,5.00,0.00,25.5,24.6,00.0,34.5,27.2,03.0,0000.0,0002.65,0000.57,0000.47
2021-12-22 01:36:00,,0822.6,5.00,0.00,25.5,24.6,00.0,34.5,27.2,03.0,0000.0,0002.75,0000.58,0000.47
2021-12-22 01:37:00,,0822.6,5.02,0.00,25.5,24.6,00.0,34.5,27.2,03.1,0000.0,0002.91,0000.59,0000.47
2021-12-22 01:38:00,,0822.6,4.99,0.00,25.5,24.6,00.0,34.5,27.2,03.2,0000.0,0002.85,0000.60,0000.45
2021-12-22 01:39:00,,0822.6,5.00,0.00,25.5,24.6,00.0,34.5,27.2,03.2,0000.0,0002.92,0000.62,0000.46
2021-12-22 01:40:00,,0822.6,5.00,0.00,25.5,24.7,00.0,34.5,27.3,03.2,0000.0,0002.03,0000.62,0000.46
2021-12-22 01:41:00,,0822.6,5.01,0.00,25.5,24.7,00.0,34.5,27.3,03.4,0000.0,0001.53,0000.64,0000.46
2021-12-22 01:42:00,,0822.6,4.99,0.00,25.5,24.7,00.0,34.5,27.3,03.5,0000.0,0001.61,0000.66,0000.47
2021-12-22 01:43:00,,0822.6,5.02,0.00,25.5,24.7,00.0,34.5,27.3,03.5,0000.0,0001.67,0000.70,0000.49
2021-12-22 01:44:00,,0822.6,4.99,0.00,25.5,24.7,00.0,34.5,27.3,03.4,0000.0,0001.57,0000.70,0000.50
2021-12-22 01:45:00,,0822.6,5.01,0.00,25.5,24.7,00.0,34.5,27.3,03.4,0000.0,0001.55,0000.69,0000.50
2021-12-22 01:46:00,,0822.6,4.98,0.00,25.5,24.7,00.0,34.5,27.2,03.0,0000.0,0001.57,0000.70,0000.50
2021-12-22 01:47:00,,0822.6,4.99,0.00,25.5,24.7,00.0,34.5,27.2,03.0,0000.0,0001.49,0000.69,0000.51
2021-12-22 01:48:00,,0822.6,5.02,0.00,25.5,24.7,00.0,34.5,27.2,02.9,0000.0,0001.29,0000.67,0000.51
2021-12-22 01:49:00,,0822.6,5.01,0.00,25.5,24.7,00.0,34.5,27.2,02.9,0000.0,0001.25,0000.65,0000.50
2021-12-22 01:50:00,,0822.7,5.00,0.00,25.5,24.7,00.0,34.5,27.2,03.0,0000.0,0001.21,0000.64,0000.50
2021-12-22 01:51:00,,0822.6,5.00,0.00,25.5,24.7,00.0,34.5,27.2,03.0,0000.0,0001.28,0000.65,0000.50
2021-12-22 01:52:00,,0822.6,5.00,0.00,25.5,24.7,00.0,34.5,27.2,03.0,0000.0,0000.97,0000.60,0000.49
2021-12-22 01:53:00,,0822.6,5.01,0.00,25.5,24.7,00.0,34.5,27.2,03.0,0000.0,0000.90,0000.58,0000.48
2021-12-22 01:54:00,,0822.6,4.98,0.00,25.5,24.7,00.0,34.5,27.2,03.0,0000.0,0000.81,0000.55,0000.47
2021-12-22 01:55:00,,0822.6,5.00,0.00,25.5,24.7,00.0,34.5,27.2,02.8,0000.0,0000.87,0000.55,0000.45
2021-12-22 01:56:00,,0822.6,5.01,0.00,25.5,24.7,00.0,34.5,27.1,02.8,0000.0,0000.96,0000.57,0000.44
2021-12-22 01:57:00,,0822.6,4.99,0.00,25.5,24.6,00.0,34.5,27.1,02.8,0000.0,0001.05,0000.60,0000.44
2021-12-22 01:58:00,,0822.6,5.02,0.00,25.5,24.6,00.0,34.5,27.2,02.8,0000.0,0001.10,0000.63,0000.43
2021-12-22 01:59:00,,0822.5,4.99,0.00,25.5,24.7,00.0,34.5,27.2,02.7,0000.0,0001.10,0000.63,0000.44
